#timestamp,LO_Frequency,Hit,StdDev 
1458658815.5,286047001.9,N
1458658835.3,286046999.3,N
1458658855.1,286046997.7,N
1458658875.8,286046996.6,N
1458658895.7,286046997.0,N
1458658915.5,286046997.0,N
1458658935.3,286046997.7,N
1458658955.2,286046995.4,N
1458658975.9,286046995.8,N
1458658995.7,286046993.9,N
1458659015.6,286046992.7,N
1458659035.4,286046993.2,N
1458659055.2,286046990.8,N
1458659075.1,286046990.1,N
1458659076.0,286046990.1,N
1458659095.8,286046989.3,N
1458659115.6,286046992.9,N
1458659135.5,286046991.3,N
1458659155.3,286046992.8,N
1458659175.1,286046992.0,N
1458659195.8,286046990.4,N
1458659215.7,286046991.5,N
1458659235.5,286046992.8,N
1458659255.3,286046992.3,N
1458659275.2,286046992.0,N
1458659295.9,286046996.3,N
1458659315.7,286046996.3,N
1458659335.6,286046996.2,N
1458659355.4,286046996.2,N
1458659375.2,286046994.9,N
1458659395.1,286046999.0,N
1458659396.0,286046999.0,N
1458659415.8,286046998.0,N
1458659435.6,286046997.3,N
1458659455.5,286046996.0,N
1458659475.3,286046994.1,N
1458659495.1,286046992.9,N
1458659515.9,286046990.3,Y
1458659535.7,286046999.6,P
1458659555.5,286046998.4,N
1458659575.4,286046997.2,N
1458659595.2,286046998.9,N
1458659615.0,286046999.1,N
1458659615.9,286046999.1,N
1458659635.7,286046998.3,N
1458659655.6,286046997.4,N
1458659675.4,286046998.3,N
1458659695.2,286046999.6,N
1458659715.1,286046997.0,N
1458659716.0,286046997.0,N
1458659735.8,286046999.1,N
1458659755.6,286046993.7,Y
1458659775.5,286046996.8,P
1458659795.3,286046995.5,P
1458659815.1,286046993.9,P
1458659835.9,286046991.8,Y
1458659855.7,286046996.4,P
1458659875.5,286046995.1,P
1458659895.4,286046998.0,P
1458659915.2,286046997.9,N
1458659935.0,286046996.4,Y
1458659936.0,286046996.4,P
1458659955.8,286046996.5,P
1458659975.6,286046998.0,P
1458659995.4,286046999.1,N
1458660015.3,286047000.8,N
1458660035.1,286046998.3,N
1458660055.8,286046999.1,N
1458660075.7,286047001.2,N
1458660095.5,286047000.3,N
1458660115.3,286047000.8,N
1458660135.2,286046996.8,N
1458660155.9,286046997.3,N
1458660175.7,286046996.4,N
1458660195.6,286046993.8,Y
1458660215.4,286046995.6,P
1458660235.2,286046997.2,N
1458660255.1,286046999.4,N
1458660256.0,286046999.4,N
1458660275.8,286046997.2,N
1458660295.6,286047000.7,N
1458660315.4,286046997.1,N
1458660335.3,286046993.7,Y
1458660355.1,286046996.7,P
1458660375.9,286047000.5,N
1458660395.7,286047001.1,N
1458660415.5,286046998.6,N
1458660435.3,286046998.9,N
1458660455.2,286047002.6,N
1458660475.0,286047000.2,N
1458660475.9,286047000.2,N
1458660495.7,286046998.9,N
1458660515.6,286047002.7,N
1458660535.4,286047002.8,N
1458660555.2,286047007.3,Y
1458660575.1,286047006.7,P
1458660576.0,286047006.7,N
1458660595.8,286047006.4,N
1458660615.6,286047011.2,Y
1458660635.5,286047006.5,P
1458660655.3,286047009.2,P
1458660675.1,286047007.6,P
1458660695.9,286047006.6,Y
1458660715.7,286046996.9,P
1458660735.5,286047000.7,N
1458660755.4,286046999.6,N
1458660775.2,286046999.2,N
1458660795.0,286047000.5,N
1458660795.9,286047000.5,N
1458660815.8,286047001.3,N
1458660835.6,286047001.3,N
1458660855.4,286047001.8,N
1458660875.3,286047003.2,N
1458660895.1,286047006.0,N
1458660896.0,286047006.0,N
1458660915.8,286047001.6,N
1458660935.7,286047002.1,N
1458660955.5,286047000.9,N
1458660975.3,286046997.0,N
1458660995.1,286046997.1,N
1458661015.9,286046996.1,N
1458661035.7,286046994.1,N
1458661055.5,286046993.3,N
1458661075.4,286046996.7,N
1458661095.2,286046996.4,N
1458661115.0,286046994.9,N
1458661115.9,286046994.9,N
1458661135.8,286046997.6,N
1458661155.6,286046995.1,N
1458661175.4,286046993.9,N
1458661195.3,286046992.5,N
1458661215.1,286046994.5,N
1458661216.0,286046994.5,N
1458661235.8,286046993.3,N
1458661255.7,286046996.0,N
1458661275.5,286046993.5,N
1458661295.3,286046995.0,N
1458661315.2,286046993.9,N
1458661335.9,286046993.3,N
1458661355.7,286046992.1,N
1458661375.5,286046990.6,N
1458661395.4,286046991.4,N
1458661415.2,286046990.6,N
1458661435.0,286046987.6,Y
1458661436.0,286046987.6,P
1458661455.8,286046990.7,N
1458661475.6,286046988.8,P
1458661495.4,286046991.4,N
1458661515.3,286046991.4,Y
1458661535.1,286047000.1,P
1458661555.8,286046999.3,N
1458661575.7,286047000.3,N
1458661595.5,286047002.3,N
1458661615.3,286046999.8,N
1458661635.2,286047000.2,N
1458661655.9,286047001.2,N
1458661675.7,286047000.6,N
1458661695.6,286047002.5,N
1458661715.4,286047002.3,N
1458661735.2,286047001.6,N
1458661755.1,286047001.8,N
1458661756.0,286047001.8,N
1458661775.8,286047005.2,N
1458661795.6,286047004.8,N
1458661815.5,286047007.4,N
1458661835.3,286047006.4,N
1458661855.1,286047003.4,N
1458661875.8,286047005.7,N
1458661895.7,286047007.9,N
1458661915.5,286047009.2,N
1458661935.3,286047006.3,N
1458661955.2,286047004.5,N
1458661975.9,286047009.8,N
1458661995.7,286047008.1,N
1458662015.6,286047008.0,N
1458662035.4,286047007.6,N
1458662055.2,286047008.7,N
1458662075.1,286047006.0,N
1458662076.0,286047006.0,N
1458662095.8,286047008.7,N
1458662115.6,286047010.7,Y
1458662135.5,286047005.0,P
1458662155.3,286047006.2,P
1458662175.1,286047008.3,P
1458662195.9,286047008.4,Y
1458662215.7,286047004.4,P
1458662235.5,286047001.3,N
1458662255.4,286047003.7,N
1458662275.2,286047005.2,Y
1458662295.0,286047000.1,P
1458662295.9,286047000.1,N
1458662315.8,286046998.6,N
1458662335.6,286046998.4,N
1458662355.4,286047000.8,N
1458662375.3,286047000.8,N
1458662395.1,286046999.9,N
1458662396.0,286046999.9,N
